Regional Weather Roundup
Issued by NWS

Home | Current Version | Previous Version | Graphics & Text | Print | Product List | Glossary On
Versions: 1 2 3 4 5 6 7 8 9 10 11 12 13 14 15 16 17 18 19 20 21 22 23 24 25 26 27 28 29 30 31 32 33 34 35 36 37 38 39 40 41 42 43 44 45 46 47 48 49 50
988
ASUS45 KABQ 301901
RWRNM
NEW MEXICO REGIONAL WEATHER ROUNDUP
NATIONAL WEATHER SERVICE ALBUQUERQUE NM
100 PM MDT MON MAY 30 2016

NOTE: "FAIR" MEANS FEW OR NO CLOUDS BELOW 12,000 FEET AGL WITH NO
       SIGNIFICANT WEATHER OR OBSTRUCTIONS TO VISION.

      THIS PRODUCT IS RELEASED AS TWO VERSIONS.  ONE VERSION NEAR
      THE TOP OF THE HOUR CONTAINING PRELIMINARY DATA FROM ALBUQUERQUE
      AND OTHER STATIONS.  A FINAL VERSION WITH ADDITIONAL DATA IS
      ISSUED ABOUT 10 MINUTES AFTER THE HOUR.

NMZ501-503-504-510>518-302000-
NORTHWEST PLATEAU/NORTHCENTRAL MOUNTAINS

CITY           SKY/WX    TMP DP  RH WIND       PRES   REMARKS
FARMINGTON     FAIR      79  12   8 VRB7      30.06F
SANTA FE       FAIR      78  15   9 MISG      30.11F
TAOS           FAIR      73  19  13 SW10G17   30.15F
ANGEL FIRE     FAIR      66  25  21 W15       30.22F

$$
NMZ402-403-502-505>509-302000-
WESTCENTRAL MOUNTAINS/SOUTHWEST MOUNTAINS

CITY           SKY/WX    TMP DP  RH WIND       PRES   REMARKS
GALLUP         FAIR      73  19  13 SE9G20    30.14F
GRANTS         FAIR      78  21  12 SW10G20   30.14F
SILVER CITY      N/A     77  36  22 SW9G20    30.10F

$$
NMZ407-409-411-412-302000-
SOUTHERN DESERTS

CITY           SKY/WX    TMP DP  RH WIND       PRES   REMARKS
LORDSBURG      PTSUNNY   79  45  29 SW12G17   30.02F
DEMING         FAIR      85  42  22 VRB7      30.01F
HOLLOMAN AFB   FAIR      86  38  18 S13G18    29.99F
ALAMOGORDO     FAIR      86  37  17 S6G20     30.02F
T OR C         FAIR      87  34  15 S17G32    30.01F

$$
NMZ519>523-302000-
CENTRAL VALLEYS/CENTRAL HIGHLANDS

CITY           SKY/WX    TMP DP  RH WIND       PRES   REMARKS
ALBUQUERQUE    PTSUNNY   79  25  13 W8        30.08F
DOUBLE EAGLE   PTSUNNY   79  43  27 S10       30.11F
CLINES CORNERS FAIR      74  25  16 W9G20     30.15F
BELEN          FAIR      82  21  10 S10G18    30.06F
SOCORRO        NOT AVBL

$$
NMZ524>526-539-540-302000-
SOUTHCENTRAL MOUNTAINS

CITY           SKY/WX    TMP DP  RH WIND       PRES   REMARKS
RUIDOSO        NOT AVBL

$$
NMZ527>531-302000-
NORTHEAST HIGHLANDS/NORTHEAST PLAINS

CITY           SKY/WX    TMP DP  RH WIND       PRES   REMARKS
LAS VEGAS      FAIR      77  20  12 SW14G26   30.12F
RATON          FAIR      73  43  33 S9        30.08F
CLAYTON        FAIR      76  52  43 S18       30.03F

$$
NMZ532>537-302000-
EASTCENTRAL PLAINS

CITY           SKY/WX    TMP DP  RH WIND       PRES   REMARKS
TUCUMCARI      FAIR      82  50  32 SW13G20   30.00F
CANNON AFB     FAIR      77  56  47 S16G26    30.05F
CLOVIS AIRPORT FAIR      79  54  41 S14G20    30.05F

$$
NMZ028-029-538-302000-
SOUTHEAST PLAINS

CITY           SKY/WX    TMP DP  RH WIND       PRES   REMARKS
ROSWELL        FAIR      76  53  44 E9        30.02F
ARTESIA        FAIR      79  59  50 VRB5G13   30.03F
CARLSBAD       FAIR      81  57  43 VRB5      29.99F
HOBBS          MOSUNNY   81  57  44 SE10G16   30.05F


$$




USA.gov is the U.S. government's official web portal to all federal, state and local government web resources and services.